| time (UTC) | temp F | wind direction | speed MPH | gust MPH | rain 1hr in | rain 24hr in | rain mn in | humidity % | barometer mb |
| 20260509150002 | 58 | 185 | 3.0 | 7.0 | 0.00 | 0.00 | 0.00 | 77 | 1007.9 |
| 20260509144459 | 58 | 165 | 3.0 | 7.0 | 0.00 | 0.00 | 0.00 | 76 | 1007.9 |
| 20260509142958 | 58 | 188 | 3.0 | 5.0 | 0.00 | 0.00 | 0.00 | 78 | 1008.2 |
| 20260509141500 | 57 | 144 | 3.0 | 7.0 | 0.00 | 0.00 | 0.00 | 79 | 1008.1 |
| 20260509134459 | 56 | 127 | 3.0 | 8.0 | 0.00 | 0.00 | 0.00 | 80 | 1008.3 |
| 20260509132959 | 55 | 139 | 4.0 | 8.0 | 0.00 | 0.00 | 0.00 | 82 | 1008.6 |
| 20260509131458 | 54 | 199 | 5.0 | 8.0 | 0.00 | 0.00 | 0.00 | 83 | 1008.9 |
| 20260509130001 | 53 | 168 | 3.0 | 8.0 | 0.00 | 0.00 | 0.00 | 84 | 1008.9 |
| 20260509122958 | 50 | 173 | 2.0 | 5.0 | 0.00 | 0.03 | 0.00 | 86 | 1009.2 |
| 20260509120002 | 46 | 214 | 0.0 | 1.0 | 0.00 | 0.03 | 0.00 | 88 | 1009.1 |
| 20260509114458 | 44 | 201 | 0.0 | 0.0 | 0.00 | 0.03 | 0.00 | 90 | 1009.2 |
| 20260509112958 | 42 | 212 | 0.0 | 1.0 | 0.00 | 0.03 | 0.00 | 90 | 1009.2 |
| 20260509111458 | 41 | 303 | 0.0 | 0.0 | 0.00 | 0.03 | 0.00 | 90 | 1009.3 |
| 20260509104458 | 39 | 303 | 0.0 | 0.0 | 0.00 | 0.03 | 0.00 | 91 | 1009.1 |
| 20260509101458 | 38 | 303 | 0.0 | 0.0 | 0.00 | 0.03 | 0.00 | 92 | 1009.1 |
| 20260509100002 | 38 | 303 | 0.0 | 0.0 | 0.00 | 0.03 | 0.00 | 92 | 1009.1 |
| 20260509094458 | 38 | 303 | 0.0 | 0.0 | 0.00 | 0.03 | 0.00 | 92 | 1009.1 |
| 20260509092959 | 38 | 303 | 0.0 | 0.0 | 0.00 | 0.03 | 0.00 | 92 | 1009.1 |
| 20260509091459 | 38 | 303 | 0.0 | 0.0 | 0.00 | 0.03 | 0.00 | 91 | 1009.2 |
| 20260509090002 | 38 | 303 | 0.0 | 0.0 | 0.00 | 0.03 | 0.00 | 91 | 1009.3 |
| 20260509084459 | 38 | 303 | 0.0 | 0.0 | 0.00 | 0.03 | 0.00 | 92 | 1009.4 |
| 20260509082959 | 37 | 303 | 0.0 | 0.0 | 0.00 | 0.03 | 0.00 | 92 | 1009.4 |
| 20260509081458 | 37 | 303 | 0.0 | 0.0 | 0.00 | 0.03 | 0.00 | 92 | 1009.6 |
| 20260509080000 | 37 | 303 | 0.0 | 0.0 | 0.00 | 0.03 | 0.00 | 92 | 1009.6 |
| 20260509074500 | 37 | 303 | 0.0 | 0.0 | 0.00 | 0.03 | 0.00 | 92 | 1009.8 |
| 20260509070000 | 37 | 303 | 0.0 | 0.0 | 0.00 | 0.03 | 0.00 | 91 | 1010.0 |
| 20260509064458 | 37 | 303 | 0.0 | 0.0 | 0.00 | 0.03 | 0.00 | 90 | 1010.1 |
| 20260509062957 | 37 | 303 | 0.0 | 0.0 | 0.00 | 0.03 | 0.00 | 90 | 1010.4 |
| 20260509061457 | 38 | 303 | 0.0 | 0.0 | 0.00 | 0.03 | 0.00 | 89 | 1010.5 |
| 20260509060000 | 38 | 303 | 0.0 | 0.0 | 0.00 | 0.03 | 0.00 | 89 | 1010.7 |
| 20260509054457 | 38 | 303 | 0.0 | 0.0 | 0.00 | 0.03 | 0.00 | 89 | 1010.8 |
| 20260509052958 | 39 | 303 | 0.0 | 0.0 | 0.00 | 0.03 | 0.00 | 88 | 1010.9 |
| 20260509051457 | 39 | 303 | 0.0 | 0.0 | 0.00 | 0.03 | 0.00 | 90 | 1011.1 |
| 20260509050001 | 39 | 303 | 0.0 | 0.0 | 0.00 | 0.03 | 0.00 | 90 | 1011.2 |
| 20260509044457 | 39 | 303 | 0.0 | 0.0 | 0.00 | 0.04 | 0.00 | 88 | 1011.2 |
| 20260509042958 | 39 | 303 | 0.0 | 0.0 | 0.00 | 0.04 | 0.00 | 88 | 1011.4 |
| 20260509041458 | 40 | 303 | 0.0 | 0.0 | 0.00 | 0.04 | 0.00 | 88 | 1011.7 |
| 20260509040007 | 40 | 303 | 0.0 | 0.0 | 0.00 | 0.04 | 0.00 | 89 | 1011.7 |
| 20260509033001 | 41 | 303 | 0.0 | 0.0 | 0.00 | 0.07 | 0.04 | 89 | 1011.6 |
| 20260509031502 | 42 | 303 | 0.0 | 0.0 | 0.00 | 0.07 | 0.04 | 88 | 1011.8 |
| 20260509030003 | 42 | 303 | 0.0 | 0.0 | 0.00 | 0.07 | 0.04 | 87 | 1011.9 |
| 20260509024500 | 43 | 303 | 0.0 | 0.0 | 0.00 | 0.08 | 0.04 | 86 | 1011.8 |
| 20260509023000 | 43 | 303 | 0.0 | 0.0 | 0.00 | 0.08 | 0.04 | 84 | 1011.7 |
| 20260509021500 | 44 | 303 | 0.0 | 0.0 | 0.00 | 0.08 | 0.04 | 82 | 1011.8 |
| 20260509020004 | 45 | 303 | 0.0 | 0.0 | 0.00 | 0.08 | 0.04 | 81 | 1011.8 |
| 20260509014500 | 45 | 303 | 0.0 | 0.0 | 0.00 | 0.08 | 0.04 | 77 | 1011.8 |
| 20260509011502 | 47 | 303 | 0.0 | 0.0 | 0.00 | 0.08 | 0.04 | 72 | 1011.8 |
| 20260509010004 | 48 | 303 | 0.0 | 0.0 | 0.00 | 0.08 | 0.04 | 74 | 1011.5 |
| 20260509004500 | 50 | 303 | 0.0 | 0.0 | 0.00 | 0.08 | 0.04 | 71 | 1011.3 |
| 20260509003000 | 51 | 303 | 0.0 | 0.0 | 0.00 | 0.08 | 0.04 | 66 | 1011.2 |
| 20260509001500 | 52 | 303 | 0.0 | 0.0 | 0.00 | 0.08 | 0.04 | 64 | 1011.2 |
| 20260508234500 | 55 | 303 | 0.0 | 0.0 | 0.00 | 0.08 | 0.04 | 63 | 1011.1 |
| 20260508233000 | 55 | 303 | 0.0 | 1.0 | 0.00 | 0.08 | 0.04 | 51 | 1011.0 |
| 20260508230007 | 56 | 283 | 0.0 | 1.0 | 0.00 | 0.08 | 0.04 | 46 | 1010.9 |
| 20260508223000 | 57 | 274 | 3.0 | 7.0 | 0.00 | 0.08 | 0.04 | 42 | 1010.9 |
| 20260508221500 | 57 | 360 | 2.0 | 3.0 | 0.00 | 0.08 | 0.04 | 45 | 1010.9 |
| 20260508220008 | 58 | 251 | 2.0 | 8.0 | 0.00 | 0.08 | 0.04 | 40 | 1011.0 |
| 20260508214500 | 57 | 274 | 3.0 | 6.0 | 0.00 | 0.08 | 0.04 | 44 | 1011.0 |
| 20260508211500 | 57 | 345 | 3.0 | 8.0 | 0.00 | 0.08 | 0.04 | 48 | 1011.1 |
| 20260508210003 | 57 | 235 | 3.0 | 11.0 | 0.00 | 0.08 | 0.04 | 41 | 1011.2 |
| 20260508204500 | 57 | 184 | 3.0 | 8.0 | 0.00 | 0.08 | 0.04 | 45 | 1011.3 |
| 20260508203000 | 57 | 32 | 3.0 | 7.0 | 0.00 | 0.08 | 0.04 | 50 | 1011.4 |
| 20260508201500 | 56 | 256 | 4.0 | 9.0 | 0.00 | 0.08 | 0.04 | 45 | 1011.6 |
| 20260508200002 | 56 | 286 | 4.0 | 11.0 | 0.00 | 0.08 | 0.04 | 46 | 1011.8 |
| 20260508192959 | 55 | 272 | 4.0 | 8.0 | 0.00 | 0.08 | 0.04 | 50 | 1012.2 |
| 20260508191459 | 55 | 227 | 3.0 | 10.0 | 0.00 | 0.08 | 0.04 | 51 | 1012.4 |
| 20260508190004 | 56 | 330 | 3.0 | 7.0 | 0.00 | 0.08 | 0.04 | 49 | 1012.3 |
| 20260508184459 | 54 | 290 | 3.0 | 9.0 | 0.00 | 0.08 | 0.04 | 52 | 1012.4 |
| 20260508182959 | 54 | 325 | 4.0 | 8.0 | 0.00 | 0.08 | 0.04 | 51 | 1012.4 |
| 20260508181459 | 54 | 214 | 4.0 | 11.0 | 0.00 | 0.08 | 0.04 | 52 | 1012.5 |
| 20260508180006 | 53 | 182 | 5.0 | 9.0 | 0.00 | 0.08 | 0.04 | 59 | 1012.6 |
| 20260508174459 | 53 | 267 | 4.0 | 7.0 | 0.00 | 0.08 | 0.04 | 58 | 1012.8 |
| 20260508172959 | 52 | 213 | 5.0 | 8.0 | 0.00 | 0.08 | 0.04 | 64 | 1012.8 |
| 20260508170003 | 50 | 267 | 4.0 | 10.0 | 0.00 | 0.08 | 0.04 | 67 | 1013.1 |
| 20260508164459 | 50 | 221 | 4.0 | 8.0 | 0.00 | 0.08 | 0.04 | 66 | 1013.1 |
| 20260508162959 | 49 | 209 | 3.0 | 7.0 | 0.00 | 0.08 | 0.04 | 71 | 1013.3 |
| 20260508161459 | 49 | 294 | 5.0 | 9.0 | 0.00 | 0.08 | 0.04 | 71 | 1013.6 |
| 20260508160004 | 48 | 209 | 4.0 | 10.0 | 0.00 | 0.08 | 0.04 | 73 | 1013.6 |
| 20260508154459 | 47 | 170 | 4.0 | 9.0 | 0.00 | 0.08 | 0.04 | 72 | 1013.6 |
| 20260508153000 | 47 | 225 | 3.0 | 5.0 | 0.00 | 0.08 | 0.04 | 75 | 1013.7 |
| 20260508151459 | 46 | 185 | 3.0 | 5.0 | 0.00 | 0.08 | 0.04 | 80 | 1013.6 |